STARLINK-35872

Last updated on Wed Dec 31 2025 00:02:06 GMT+0000 (Coordinated Universal Time)

1 66580U 25268Z 25364.58335648 .00066674 00000+0 24145-2 0 9996 2 66580 43.0006 17.2008 0001123 270.2804 46.0544 15.27527143 5979
UTC large
Height (km)
Speed (km/s)
/
Latitude / Longitude
Inclination (degrees)
Orbital Period (minutes)
Azimuth
Elevation
Range (km)
Doppler Factor

Next 0 passes for location: London (51.5072 / 0.1276)

Sorry there are no passes over London.